Weather reports worldwide

Advertisment
K14A, Netherlands (6204): temperature & dewpoint: 09.10.2019 20:00:00 - 15.10.2019 20:00:00 (CEST)K14A, Netherlands (6204): wind speed & gusts: 09.10.2019 20:00:00 - 15.10.2019 20:00:00 (CEST)K14A, Netherlands (6204): wind direction: 09.10.2019 20:00:00 - 15.10.2019 20:00:00 (CEST)K14A, Netherlands (6204): reduced air pressure: 09.10.2019 20:00:00 - 15.10.2019 20:00:00 (CEST)K14A, Netherlands (6204): visibility: 09.10.2019 20:00:00 - 15.10.2019 20:00:00 (CEST)
Date & Time tt [°C] td [°C] ff [km/h] ff [kn] fx [km/h] fx [kn] dd ppp [hPa] vv [km]
15.10.2019 20:00:00 14,0 11,3 19 10 - - WSW 1005,6 47
15.10.2019 19:00:00 13,7 11,1 22 12 22 12 SW 1005,2 10
15.10.2019 18:00:00 13,5 11,1 22 12 25 14 WSW 1004,6 10
15.10.2019 17:00:00 13,4 10,8 28 15 29 16 WSW 1004,6 10
15.10.2019 16:00:00 13,6 11,3 31 17 32 18 SW 1004,5 10
15.10.2019 15:00:00 13,4 10,9 31 17 36 19 WSW 1004,1 10
15.10.2019 14:00:00 13,7 11,2 37 20 40 21 WSW 1003,9 10
15.10.2019 13:00:00 13,8 11,5 36 19 - - SW 1004,0 42
15.10.2019 12:00:00 - - - - - - - - -
15.10.2019 11:00:00 14,0 11,3 40 21 50 27 SW 1003,5 33
15.10.2019 10:00:00 14,4 11,3 54 29 54 29 SSW 1002,7 10
15.10.2019 09:00:00 14,8 12,3 55 30 54 29 SSW 1002,0 10
15.10.2019 08:00:00 15,5 13,1 50 27 50 27 SSW 1002,0 10
15.10.2019 07:00:00 15,9 13,1 46 25 54 29 S 1001,8 10
15.10.2019 06:00:00 16,2 14,2 44 24 47 25 S 1001,7 10
15.10.2019 05:00:00 16,4 14,3 37 20 43 23 S 1001,8 10
15.10.2019 04:00:00 16,6 14,1 37 20 43 23 S 1001,8 10
15.10.2019 03:00:00 17,0 14,3 42 23 47 25 S 1002,6 10
15.10.2019 02:00:00 17,0 15,3 41 22 43 23 SSE 1002,0 10
15.10.2019 01:00:00 16,7 15,4 35 19 40 21 SE 1001,3 9
15.10.2019 00:00:00 16,5 15,5 24 13 43 23 SSE 1002,1 4,8
14.10.2019 23:00:00 16,2 14,6 37 20 43 23 SE 1004,2 10
14.10.2019 22:00:00 15,6 14,1 39 21 43 23 ESE 1005,0 10
14.10.2019 21:00:00 15,0 13,5 44 24 50 27 E 1005,3 10
14.10.2019 20:00:00 14,7 12,8 52 28 54 29 E 1006,0 10
14.10.2019 19:00:00 14,4 11,3 50 27 50 27 E 1007,1 10
14.10.2019 18:00:00 14,0 9,7 46 25 50 27 E 1007,5 7
14.10.2019 17:00:00 14,0 9,0 44 24 47 25 E 1007,8 10
14.10.2019 16:00:00 14,2 10,8 41 22 43 23 E 1008,9 10
14.10.2019 15:00:00 13,8 9,1 41 22 40 21 E 1010,1 10
14.10.2019 14:00:00 14,2 9,3 21 11 25 14 E 1011,5 10
14.10.2019 13:00:00 13,9 9,9 13 7 14 8 E 1012,9 10
14.10.2019 12:00:00 14,0 9,6 8 4 11 6 E 1013,3 10
14.10.2019 11:00:00 13,9 9,4 5 3 11 6 ENE 1013,1 10
14.10.2019 10:00:00 14,0 9,1 2 1 11 6 - 1013,3 10
14.10.2019 09:00:00 14,2 9,4 9 5 14 8 W 1013,0 10
14.10.2019 08:00:00 14,5 9,7 11 6 25 14 W 1012,7 10
14.10.2019 07:00:00 13,5 9,3 26 14 29 16 W 1012,0 10
14.10.2019 06:00:00 13,6 9,2 29 16 36 19 W 1011,9 10
14.10.2019 05:00:00 13,6 9,5 35 19 36 19 W 1011,3 10
14.10.2019 04:00:00 13,5 9,1 39 21 47 25 W 1010,9 10
14.10.2019 03:00:00 13,7 9,0 48 26 54 29 W 1010,5 10
14.10.2019 02:00:00 13,9 9,4 61 33 65 35 W 1009,7 10
14.10.2019 01:00:00 14,3 9,1 65 35 68 37 W 1009,0 10
14.10.2019 00:00:00 14,8 9,6 70 38 72 39 W 1007,9 10
13.10.2019 23:00:00 15,3 10,1 70 38 76 41 WSW 1006,9 10
13.10.2019 22:00:00 15,8 11,2 72 39 72 39 WSW 1005,5 10
13.10.2019 21:00:00 16,3 12,4 65 35 65 35 WSW 1004,2 10
13.10.2019 20:00:00 16,5 12,8 61 33 65 35 SW 1003,4 10
13.10.2019 19:00:00 16,7 14,1 68 37 72 39 SSW 1002,2 10
13.10.2019 18:00:00 17,3 14,9 72 39 76 41 SSW 1001,0 10
13.10.2019 17:00:00 17,3 15,5 65 35 68 37 S 1000,5 10
13.10.2019 16:00:00 17,2 15,6 54 29 61 33 S 1000,7 -
13.10.2019 15:00:00 17,0 15,0 50 27 50 27 S 1001,9 10
13.10.2019 14:00:00 16,7 15,1 46 25 47 25 S 1002,2 10
13.10.2019 13:00:00 16,5 14,9 41 22 40 21 S 1002,8 10
13.10.2019 12:00:00 16,1 14,9 35 19 36 19 S 1003,6 9
13.10.2019 11:00:00 15,2 14,4 39 21 40 21 ESE 1004,0 3,1
13.10.2019 10:00:00 13,4 13,0 37 20 40 21 E 1005,2 4,8
13.10.2019 09:00:00 13,3 12,2 37 20 36 19 E 1005,5 7
13.10.2019 08:00:00 13,3 12,1 34 18 32 18 ESE 1006,1 9
13.10.2019 07:00:00 13,3 11,9 34 18 32 18 ESE 1006,9 10
13.10.2019 06:00:00 13,1 11,0 28 15 29 16 ESE 1007,2 10
13.10.2019 05:00:00 13,1 11,7 24 13 25 14 SE 1007,6 10
13.10.2019 04:00:00 13,1 11,1 16 9 22 12 SE 1008,0 10
13.10.2019 03:00:00 13,1 10,1 18 10 18 10 SSE 1008,6 10
13.10.2019 02:00:00 13,7 11,5 18 10 22 12 S 1008,9 9
13.10.2019 01:00:00 13,8 11,3 21 11 22 12 SSW 1009,3 10
13.10.2019 00:00:00 14,0 11,1 24 13 25 14 S 1009,5 10
12.10.2019 23:00:00 13,9 10,7 26 14 29 16 SSW 1009,3 10
12.10.2019 22:00:00 14,0 10,8 28 15 32 18 SSW 1009,5 10
12.10.2019 21:00:00 13,8 10,6 29 16 29 16 SW 1009,1 10
12.10.2019 20:00:00 13,9 10,9 29 16 32 18 SW 1008,8 10
12.10.2019 19:00:00 13,6 10,5 35 19 36 19 SW 1008,9 10
12.10.2019 18:00:00 13,6 9,7 37 20 40 21 SW 1008,6 10
12.10.2019 17:00:00 13,9 9,6 37 20 36 19 SW 1008,8 10
12.10.2019 16:00:00 13,9 9,9 39 21 40 21 SW 1008,7 10
12.10.2019 15:00:00 13,9 9,5 41 22 40 21 SW 1008,7 10
12.10.2019 14:00:00 13,8 10,4 39 21 40 21 WSW 1008,6 10
12.10.2019 13:00:00 13,8 10,1 35 19 36 19 WSW 1008,4 10
12.10.2019 12:00:00 13,8 10,4 37 20 36 19 W 1008,0 10
12.10.2019 11:00:00 14,0 10,4 37 20 36 19 W 1007,3 10
12.10.2019 10:00:00 13,8 10,0 37 20 43 23 W 1006,5 10
12.10.2019 09:00:00 14,0 9,3 44 24 47 25 W 1006,1 10
12.10.2019 08:00:00 13,9 10,1 48 26 47 25 WSW 1005,4 10
12.10.2019 07:00:00 14,0 10,4 46 25 47 25 WSW 1005,2 10
12.10.2019 06:00:00 14,2 10,5 48 26 47 25 WSW 1005,1 10
12.10.2019 05:00:00 13,7 9,9 46 25 43 23 WSW 1004,6 10
12.10.2019 04:00:00 13,4 9,7 44 24 47 25 WSW 1004,9 10
12.10.2019 03:00:00 13,1 10,0 39 21 43 23 W 1004,7 10
12.10.2019 02:00:00 13,8 8,3 42 23 43 23 W 1004,7 10
12.10.2019 01:00:00 14,9 8,6 42 23 43 23 W 1004,0 10
12.10.2019 00:00:00 15,3 10,1 42 23 47 25 W 1003,6 10
11.10.2019 23:00:00 15,1 12,3 42 23 43 23 WSW 1003,7 10
11.10.2019 22:00:00 14,1 13,1 42 23 54 29 WSW 1003,0 9
11.10.2019 21:00:00 14,2 13,3 46 25 79 43 W 1002,4 6
11.10.2019 20:00:00 16,5 14,4 68 37 83 45 SSW 1001,1 7
11.10.2019 19:00:00 16,6 14,0 78 42 76 41 SSW 1001,2 10
11.10.2019 18:00:00 16,2 14,1 74 40 76 41 SSW 1001,6 10
11.10.2019 17:00:00 16,3 14,3 72 39 76 41 SSW 1001,9 10
11.10.2019 16:00:00 16,4 14,1 74 40 79 43 SSW 1002,3 10
11.10.2019 15:00:00 16,5 13,8 74 40 79 43 SSW 1002,8 10
11.10.2019 14:00:00 16,5 13,8 72 39 79 43 SSW 1003,9 10
11.10.2019 13:00:00 16,5 13,6 76 41 83 45 SSW 1004,0 10
11.10.2019 12:00:00 16,1 14,1 72 39 72 39 SSW 1004,5 10
11.10.2019 11:00:00 15,9 14,4 61 33 65 35 SSW 1004,8 10
11.10.2019 10:00:00 15,8 14,1 63 34 65 35 SW 1005,6 8
11.10.2019 09:00:00 15,9 14,2 50 27 65 35 SW 1005,6 10
11.10.2019 08:00:00 16,0 14,3 55 30 58 31 SSW 1005,3 10
11.10.2019 07:00:00 16,0 14,1 59 32 61 33 SW 1005,6 10
11.10.2019 06:00:00 16,1 14,0 59 32 65 35 SW 1005,9 10
11.10.2019 05:00:00 16,3 14,0 67 36 72 39 SW 1006,3 10
11.10.2019 04:00:00 16,3 13,7 72 39 76 41 SW 1005,9 10
11.10.2019 03:00:00 16,3 13,6 72 39 83 45 SW 1005,9 10
11.10.2019 02:00:00 16,1 13,4 72 39 76 41 SSW 1006,1 10
11.10.2019 01:00:00 15,8 12,9 68 37 72 39 SW 1006,8 8
11.10.2019 00:00:00 15,9 12,3 68 37 72 39 SW 1007,6 10
10.10.2019 23:00:00 15,9 11,5 70 38 72 39 SW 1008,0 10
10.10.2019 22:00:00 16,1 9,9 65 35 72 39 SSW 1008,4 10
10.10.2019 21:00:00 15,6 10,2 59 32 61 33 SW 1008,8 10
10.10.2019 20:00:00 15,3 9,8 57 31 54 29 SW 1009,6 10
10.10.2019 19:00:00 15,3 9,0 46 25 54 29 SW 1009,9 10
10.10.2019 18:00:00 14,9 7,9 54 29 54 29 WSW 1010,1 10
10.10.2019 17:00:00 14,5 8,7 55 30 58 31 WSW 1009,9 10
10.10.2019 16:00:00 14,1 7,4 57 31 58 31 W 1010,1 10
10.10.2019 15:00:00 13,7 7,4 57 31 61 33 W 1009,5 10
10.10.2019 14:00:00 13,4 7,9 61 33 61 33 W 1009,2 10
10.10.2019 13:00:00 13,2 9,0 57 31 61 33 W 1008,6 10
10.10.2019 12:00:00 13,0 9,2 57 31 65 35 W 1008,2 10
10.10.2019 11:00:00 12,9 8,8 59 32 61 33 W 1007,5 10
10.10.2019 10:00:00 12,9 8,8 59 32 61 33 W 1006,8 10
10.10.2019 09:00:00 12,7 8,5 57 31 58 31 W 1006,1 10
10.10.2019 08:00:00 12,8 9,0 55 30 58 31 W 1005,3 10
10.10.2019 07:00:00 12,9 8,5 50 27 54 29 W 1004,8 10
10.10.2019 06:00:00 12,9 8,1 48 26 50 27 WSW 1004,3 10
10.10.2019 05:00:00 13,0 8,3 44 24 47 25 W 1004,0 10
10.10.2019 04:00:00 13,3 8,9 46 25 50 27 W 1003,6 10
10.10.2019 03:00:00 13,5 8,4 46 25 50 27 W 1003,4 10
10.10.2019 02:00:00 13,5 8,1 50 27 54 29 W 1003,3 10
10.10.2019 01:00:00 13,6 7,3 52 28 54 29 W 1002,9 10
10.10.2019 00:00:00 13,3 7,8 46 25 58 31 W 1002,7 6
09.10.2019 23:00:00 13,5 7,6 48 26 61 33 W 1002,7 10
09.10.2019 22:00:00 13,2 7,4 42 23 50 27 W 1002,6 10
09.10.2019 21:00:00 13,2 6,7 37 20 61 33 W 1002,2 10
09.10.2019 20:00:00 13,6 7,1 35 19 54 29 W 1002,2 10

tt = temperature
td = dewpoint
ff = wind speed
fx = gusts
dd = wind direction
ppp = reduced air pressure
vv = visibility

Next stations